Tiempo cada hora Dakoro

Hoy, 14 Mayo, Viernes

Tiempo Temperatura Precipitaciones Viento Presión Humedad
00:00 +34°C° 0 mm 2 mps 721 mmHg 28%
01:00 +32°C° 0 mm 2 mps 721 mmHg 33%
02:00 +33°C° 0 mm 3 mps 721 mmHg 35%
03:00 +31°C° 0 mm 3 mps 721 mmHg 37%
04:00 +31°C° 0 mm 3 mps 721 mmHg 39%
05:00 +31°C° 0 mm 3 mps 721 mmHg 40%
06:00 +31°C° 0 mm 3 mps 722 mmHg 40%
07:00 +30°C° 0 mm 3 mps 722 mmHg 41%
08:00 +34°C° 0 mm 3 mps 722 mmHg 35%
09:00 +36°C° 0 mm 4 mps 723 mmHg 30%
10:00 +40°C° 0 mm 4 mps 723 mmHg 25%
11:00 +40°C° 0 mm 3 mps 723 mmHg 22%
12:00 +43°C° 0 mm 3 mps 722 mmHg 19%
13:00 +43°C° 0 mm 2 mps 722 mmHg 16%
14:00 +43°C° 0 mm 2 mps 721 mmHg 14%
15:00 +45°C° 0 mm 3 mps 720 mmHg 12%
16:00 +46°C° 0 mm 3 mps 720 mmHg 10%
17:00 +44°C° 0 mm 3 mps 720 mmHg 11%
18:00 +42°C° 0 mm 3 mps 720 mmHg 12%
19:00 +40°C° 0 mm 3 mps 720 mmHg 13%
20:00 +39°C° 0 mm 3 mps 720 mmHg 14%
21:00 +38°C° 0 mm 3 mps 721 mmHg 15%
22:00 +37°C° 0 mm 3 mps 721 mmHg 16%
23:00 +36°C° 0 mm 3 mps 721 mmHg 23%

Mañana, 15 Mayo, Sábado

Tiempo Temperatura Precipitaciones Viento Presión Humedad
00:00 +35°C° 0 mm 4 mps 722 mmHg 29%
01:00 +33°C° 0 mm 5 mps 722 mmHg 35%
02:00 +33°C° 0 mm 4 mps 721 mmHg 37%
03:00 +32°C° 0 mm 4 mps 721 mmHg 39%
04:00 +32°C° 0 mm 4 mps 721 mmHg 42%
05:00 +31°C° 0 mm 3 mps 722 mmHg 41%
06:00 +31°C° 0 mm 3 mps 722 mmHg 41%
07:00 +31°C° 0 mm 3 mps 723 mmHg 41%
08:00 +35°C° 0 mm 3 mps 723 mmHg 35%
09:00 +38°C° 0 mm 4 mps 723 mmHg 29%
10:00 +41°C° 0 mm 5 mps 723 mmHg 24%
11:00 +43°C° 0 mm 4 mps 723 mmHg 20%
12:00 +44°C° 0 mm 3 mps 722 mmHg 17%
13:00 +45°C° 0 mm 2 mps 722 mmHg 13%
14:00 +45°C° 0 mm 3 mps 721 mmHg 13%
15:00 +46°C° 0 mm 3 mps 720 mmHg 12%
16:00 +47°C° 0 mm 4 mps 720 mmHg 11%
17:00 +44°C° 0 mm 4 mps 720 mmHg 12%
18:00 +42°C° 0 mm 3 mps 720 mmHg 13%
19:00 +40°C° 0 mm 2 mps 720 mmHg 15%
20:00 +39°C° 0 mm 2 mps 720 mmHg 15%
21:00 +38°C° 0 mm 2 mps 721 mmHg 16%
22:00 +37°C° 0 mm 2 mps 721 mmHg 17%
23:00 +36°C° 0 mm 2 mps 721 mmHg 19%

Pasado mañana, 16 Mayo, Domingo

Tiempo Temperatura Precipitaciones Viento Presión Humedad
00:00 +35°C° 0 mm 2 mps 721 mmHg 21%
01:00 +33°C° 0 mm 1 mps 721 mmHg 22%
02:00 +32°C° 0 mm 2 mps 721 mmHg 27%
03:00 +31°C° 0 mm 3 mps 721 mmHg 32%
04:00 +32°C° 0 mm 4 mps 721 mmHg 37%
05:00 +31°C° 0 mm 3 mps 721 mmHg 39%
06:00 +31°C° 0 mm 3 mps 722 mmHg 41%
07:00 +31°C° 0 mm 3 mps 722 mmHg 43%
08:00 +34°C° 0 mm 4 mps 723 mmHg 38%
09:00 +37°C° 0 mm 4 mps 723 mmHg 32%
10:00 +40°C° 0 mm 5 mps 723 mmHg 27%
11:00 +42°C° 0 mm 4 mps 723 mmHg 22%
12:00 +42°C° 0 mm 2 mps 723 mmHg 18%
13:00 +41°C° 0 mm 0 mps 722 mmHg 14%
14:00 +45°C° 0 mm 2 mps 721 mmHg 11%
15:00 +47°C° 0 mm 4 mps 721 mmHg 8%
16:00 +48°C° 0 mm 5 mps 720 mmHg 6%
17:00 +46°C° 0 mm 5 mps 720 mmHg 6%
18:00 +43°C° 0 mm 4 mps 720 mmHg 7%
19:00 +41°C° 0 mm 4 mps 720 mmHg 7%
20:00 +40°C° 0 mm 4 mps 720 mmHg 8%
21:00 +38°C° 0 mm 4 mps 720 mmHg 8%
22:00 +36°C° 0 mm 4 mps 721 mmHg 9%
23:00 +36°C° 0 mm 4 mps 721 mmHg 10%

17 Mayo, Lunes

Tiempo Temperatura Precipitaciones Viento Presión Humedad
00:00 +35°C° 0 mm 3 mps 721 mmHg 12%
01:00 +34°C° 0 mm 3 mps 720 mmHg 13%
02:00 +34°C° 0 mm 3 mps 720 mmHg 13%
03:00 +33°C° 0 mm 3 mps 721 mmHg 13%
04:00 +31°C° 0 mm 3 mps 721 mmHg 13%
05:00 +31°C° 0 mm 3 mps 721 mmHg 15%
06:00 +30°C° 0 mm 3 mps 722 mmHg 18%
07:00 +30°C° 0 mm 3 mps 723 mmHg 20%
08:00 +34°C° 0 mm 4 mps 723 mmHg 22%
09:00 +36°C° 0 mm 4 mps 723 mmHg 24%
10:00 +40°C° 0 mm 5 mps 724 mmHg 25%
11:00 +41°C° 0 mm 4 mps 723 mmHg 21%
12:00 +43°C° 0 mm 3 mps 723 mmHg 17%
13:00 +43°C° 0 mm 2 mps 722 mmHg 13%
14:00 +45°C° 0 mm 2 mps 722 mmHg 11%
15:00 +46°C° 0 mm 2 mps 721 mmHg 9%
16:00 +47°C° 0 mm 2 mps 721 mmHg 7%
17:00 +43°C° 0 mm 2 mps 720 mmHg 7%
18:00 +41°C° 0 mm 2 mps 720 mmHg 7%
19:00 +39°C° 0 mm 2 mps 720 mmHg 7%
20:00 +38°C° 0 mm 2 mps 720 mmHg 7%
21:00 +37°C° 0 mm 2 mps 721 mmHg 8%
22:00 +36°C° 0 mm 2 mps 721 mmHg 8%
23:00 +35°C° 0 mm 2 mps 721 mmHg 8%

18 Mayo, Martes

Tiempo Temperatura Precipitaciones Viento Presión Humedad
00:00 +35°C° 0 mm 2 mps 721 mmHg 9%
01:00 +35°C° 0 mm 3 mps 721 mmHg 9%
02:00 +34°C° 0 mm 3 mps 721 mmHg 11%
03:00 +33°C° 0 mm 4 mps 721 mmHg 14%
04:00 +32°C° 0 mm 4 mps 721 mmHg 16%
05:00 +32°C° 0 mm 4 mps 722 mmHg 25%
06:00 +32°C° 0 mm 4 mps 722 mmHg 34%
07:00 +30°C° 0 mm 4 mps 723 mmHg 43%
08:00 +34°C° 0 mm 5 mps 723 mmHg 40%
09:00 +36°C° 0 mm 6 mps 724 mmHg 37%
10:00 +39°C° 0 mm 6 mps 724 mmHg 33%
11:00 +41°C° 0 mm 5 mps 724 mmHg 28%
12:00 +43°C° 0 mm 4 mps 723 mmHg 22%
13:00 +45°C° 0 mm 3 mps 723 mmHg 17%
14:00 +45°C° 0 mm 3 mps 722 mmHg 15%
15:00 +45°C° 0 mm 2 mps 722 mmHg 13%
16:00 +45°C° 0 mm 1 mps 721 mmHg 11%
17:00 +43°C° 0 mm 1 mps 721 mmHg 12%
18:00 +42°C° 0 mm 2 mps 721 mmHg 12%
19:00 +40°C° 0 mm 2 mps 720 mmHg 13%
20:00 +39°C° 0 mm 2 mps 721 mmHg 14%
21:00 +38°C° 0 mm 2 mps 721 mmHg 14%
22:00 +37°C° 0 mm 2 mps 721 mmHg 15%
23:00 +36°C° 0 mm 2 mps 721 mmHg 18%

19 Mayo, Miércoles

Tiempo Temperatura Precipitaciones Viento Presión Humedad
00:00 +35°C° 0 mm 3 mps 722 mmHg 21%
01:00 +33°C° 0 mm 3 mps 722 mmHg 24%
02:00 +33°C° 0 mm 3 mps 722 mmHg 28%
03:00 +31°C° 0 mm 3 mps 722 mmHg 31%
04:00 +30°C° 0 mm 3 mps 722 mmHg 35%
05:00 +30°C° 0 mm 4 mps 722 mmHg 38%
06:00 +30°C° 0 mm 4 mps 723 mmHg 42%
07:00 +30°C° 0 mm 4 mps 723 mmHg 45%
08:00 +33°C° 0 mm 5 mps 723 mmHg 39%
09:00 +36°C° 0 mm 6 mps 724 mmHg 32%
10:00 +40°C° 0 mm 6 mps 724 mmHg 26%
11:00 +41°C° 0 mm 6 mps 724 mmHg 23%
12:00 +43°C° 0 mm 5 mps 724 mmHg 20%
13:00 +45°C° 0 mm 5 mps 723 mmHg 17%
14:00 +45°C° 0 mm 4 mps 723 mmHg 16%
15:00 +45°C° 0 mm 3 mps 722 mmHg 14%
16:00 +45°C° 0 mm 3 mps 721 mmHg 13%
17:00 +43°C° 0 mm 2 mps 721 mmHg 14%
18:00 +41°C° 0 mm 2 mps 721 mmHg 15%
19:00 +39°C° 0 mm 2 mps 721 mmHg 16%
20:00 +39°C° 0 mm 2 mps 721 mmHg 16%
21:00 +38°C° 0 mm 2 mps 721 mmHg 17%
22:00 +37°C° 0 mm 2 mps 721 mmHg 18%
23:00 +37°C° 0 mm 2 mps 721 mmHg 18%
Mostrar más

Necesitamos Su Consentimiento

Meteoprog y nuestros Proveedores de Servicios pueden almacenar y acceder a sus datos personales como cookies, identificadores de dispositivo u otras tecnologías similares de su dispositivo y procesar dichos datos para personalizar contenido y anuncios, además de ofrecer funciones de redes sociales y analizar el tráfico.

  • Almacenar y/o acceder a información en su dispositivo

    Se puede almacenar o acceder a cookies, identificadores de dispositivo u otra información de su dispositivo para los fines anteriormente indicados.

  • Anuncios y contenido personalizados, medición de anuncios y contenido, percepciones del público, y desarrollo de productos

    Los anuncios y el contenido pueden personalizarse en base a su perfil. Se pueden añadir más datos para personalizar mejor los anuncios y contenidos. Se puede medir el rendimiento de los anuncios y contenidos. Se puede obtener la percepción sobre el público que ha visto los anuncios y contenidos. Dichos datos pueden usarse para desarrollar o mejorar la experiencia del usuario, sistemas y software.

Al hacer clic en ‘Estoy De Acuerdo’ usted permitirá el uso de las cookies, identificadores de dispositivo, balizas web u otras tecnologías similares indicadas. Su configuración puede cambiarse desde el navegador de su dispositivo.

Para ciertos fines, los intereses legítimos pueden ser considerados por encima del consentimiento. Puede leer más sobre ello en nuestra Política de Privacidad y Cookies.